| |
Missouri Department of Transportation

Social Media Facebook Twitter Flickr Blog YouTube RSS

Current AWOS Information

 
AWOS Home - General Info for all Airports
Current AWOS for all Airports - Current METAR for all Airports
Glossary - Disclaimer - Other Links


MARSHALL--MARSHALL MEMORIAL MUNICIPAL--KMHL
 
Recent AWOS History
 
10/25/14     10:02 AM CDT      15:02 GMT
Air Temperature 62°F (17°C ) 1st Cloud Layer Overcast at 100 feet
Dew Point 62°F (17°C) 2nd Cloud Layer  
Barometric Pressure 30.08 in Hg. 3rd Cloud Layer  
Wind Speed 0 mph (0 knots) Density Altitude  
Peak Wind Gusts   Variable Wind Directions  
Wind Direction   Variable Visibility  
Visibility M1/4 statute miles  

Thunderstorm and Precipitation Identification:  Smog
Thunderstorm Remarks: 

Current METAR Record: METAR KMHL 251505Z AUTO 00000KT M1/4SM FG OVC001 16/16 A3008 RMK AO2

 

 

 

About Us
How Do I...
Contact Us
Missouri Department of Transportation
Central Office
105 W. Capitol Avenue
Jefferson City, MO 65102
1-888-ASK-MODOT (275-6636)
1-866-831-6277 (Motor Carrier Services)
Drivers License Offices
horz_bar
| | |
Missouri State Government
© 2013 Missouri Department of Transportation. All Rights Reserved.   Privacy Policy.
 
 
 
 
RSS FeedYoutubeBlogFlickrTwitter Facebook